| time (UTC) | temp C | wind direction | speed KPH | gust KPH | rain 1hr cm | rain 24hr cm | rain mn cm | humidity % | barometer mb |
| 20260506180057 | 20 | 38 | 1.6 | 16.1 | 0.00 | 0.00 | 0.00 | 80 | 1012.0 |
| 20260506174602 | 20 | 62 | 8.0 | 14.5 | 0.00 | 0.00 | 0.00 | 82 | 1011.9 |
| 20260506173112 | 19 | 91 | 6.4 | 14.5 | 0.00 | 0.00 | 0.00 | 82 | 1011.7 |
| 20260506171600 | 18 | 53 | 6.4 | 14.5 | 0.00 | 0.00 | 0.00 | 82 | 1011.6 |
| 20260506170140 | 18 | 0 | 4.8 | 16.1 | 0.00 | 0.00 | 0.00 | 85 | 1011.5 |
| 20260506164558 | 17 | 81 | 8.0 | 16.1 | 0.00 | 0.00 | 0.00 | 88 | 1011.6 |
| 20260506163104 | 16 | 53 | 4.8 | 17.7 | 0.00 | 0.00 | 0.00 | 92 | 1012.2 |
| 20260506161606 | 15 | 74 | 6.4 | 17.7 | 0.00 | 0.00 | 0.00 | 92 | 1011.9 |
| 20260506160100 | 15 | 48 | 4.8 | 16.1 | 0.00 | 0.00 | 0.00 | 91 | 1013.2 |
| 20260506154558 | 16 | 26 | 4.8 | 17.7 | 0.00 | 0.00 | 0.00 | 91 | 1013.3 |
| 20260506153103 | 16 | 0 | 3.2 | 16.1 | 0.00 | 0.00 | 0.00 | 91 | 1013.2 |
| 20260506151612 | 17 | 350 | 4.8 | 14.5 | 0.00 | 0.00 | 0.00 | 91 | 1013.1 |
| 20260506150107 | 17 | 21 | 1.6 | 14.5 | 0.00 | 0.00 | 0.00 | 91 | 1012.0 |
| 20260506144617 | 17 | 55 | 3.2 | 17.7 | 0.00 | 0.00 | 0.00 | 91 | 1011.5 |
| 20260506143104 | 18 | 0 | 4.8 | 9.7 | 0.00 | 0.00 | 0.00 | 91 | 1011.4 |
| 20260506141559 | 19 | 352 | 3.2 | 16.1 | 0.00 | 0.00 | 0.00 | 92 | 1010.8 |
| 20260506140113 | 20 | 55 | 3.2 | 12.9 | 0.00 | 0.00 | 0.00 | 92 | 1010.4 |
| 20260506134557 | 23 | 163 | 1.6 | 6.4 | 0.00 | 0.00 | 0.00 | 95 | 1010.3 |
| 20260506133056 | 23 | 0 | 0.0 | 1.6 | 0.00 | 0.00 | 0.00 | 95 | 1009.8 |
| 20260506131601 | 23 | 0 | 0.0 | 0.0 | 0.00 | 0.00 | 0.00 | 95 | 1009.9 |
| 20260506130133 | 23 | 0 | 0.0 | 1.6 | 0.00 | 0.00 | 0.00 | 95 | 1009.3 |
| 20260506124555 | 23 | 0 | 0.0 | 3.2 | 0.00 | 0.00 | 0.00 | 94 | 1009.2 |
| 20260506123058 | 23 | 0 | 0.0 | 0.0 | 0.00 | 0.00 | 0.00 | 94 | 1009.1 |
| 20260506121557 | 22 | 0 | 0.0 | 1.6 | 0.00 | 0.00 | 0.00 | 94 | 1008.8 |
| 20260506114605 | 22 | 0 | 0.0 | 0.0 | 0.00 | 0.00 | 0.00 | 94 | 1008.8 |
| 20260506113107 | 23 | 0 | 0.0 | 3.2 | 0.00 | 0.00 | 0.00 | 94 | 1008.9 |
| 20260506111557 | 23 | 0 | 0.0 | 4.8 | 0.00 | 0.00 | 0.00 | 93 | 1008.9 |
| 20260506110105 | 23 | 192 | 0.0 | 4.8 | 0.00 | 0.00 | 0.00 | 93 | 1008.9 |
| 20260506104616 | 23 | 192 | 0.0 | 3.2 | 0.00 | 0.00 | 0.00 | 93 | 1009.0 |
| 20260506103057 | 23 | 0 | 0.0 | 4.8 | 0.00 | 0.00 | 0.00 | 93 | 1008.7 |
| 20260506101603 | 23 | 192 | 0.0 | 3.2 | 0.00 | 0.00 | 0.00 | 92 | 1008.6 |
| 20260506100055 | 23 | 0 | 0.0 | 6.4 | 0.00 | 0.00 | 0.00 | 91 | 1008.4 |
| 20260506094559 | 23 | 0 | 0.0 | 4.8 | 0.00 | 0.00 | 0.00 | 90 | 1008.3 |
| 20260506093104 | 24 | 0 | 0.0 | 8.0 | 0.00 | 0.00 | 0.00 | 89 | 1008.1 |
| 20260506091558 | 24 | 0 | 1.6 | 8.0 | 0.00 | 0.00 | 0.00 | 89 | 1008.0 |
| 20260506084557 | 24 | 192 | 0.0 | 11.3 | 0.00 | 0.00 | 0.00 | 89 | 1007.8 |
| 20260506083059 | 24 | 210 | 0.0 | 9.7 | 0.00 | 0.00 | 0.00 | 88 | 1007.9 |
| 20260506081556 | 24 | 208 | 1.6 | 11.3 | 0.00 | 0.00 | 0.00 | 88 | 1007.7 |
| 20260506073106 | 24 | 206 | 3.2 | 17.7 | 0.00 | 0.00 | 0.00 | 89 | 1007.7 |
| 20260506071612 | 24 | 204 | 4.8 | 17.7 | 0.00 | 0.00 | 0.00 | 89 | 1007.9 |
| 20260506070104 | 24 | 192 | 4.8 | 14.5 | 0.00 | 0.00 | 0.00 | 89 | 1007.9 |
| 20260506061600 | 24 | 196 | 8.0 | 16.1 | 0.00 | 0.00 | 0.00 | 89 | 1007.6 |
| 20260506044602 | 24 | 187 | 4.8 | 19.3 | 0.00 | 0.00 | 0.00 | 88 | 1007.6 |
| 20260506043103 | 25 | 186 | 4.8 | 14.5 | 0.00 | 0.00 | 0.00 | 88 | 1007.9 |
| 20260506041608 | 25 | 193 | 3.2 | 12.9 | 0.00 | 0.00 | 0.00 | 87 | 1007.6 |
| 20260506040057 | 25 | 182 | 3.2 | 9.7 | 0.00 | 0.00 | 0.00 | 87 | 1007.5 |
| 20260506034556 | 25 | 182 | 3.2 | 16.1 | 0.00 | 0.00 | 0.00 | 86 | 1007.3 |
| 20260506033110 | 25 | 179 | 1.6 | 11.3 | 0.00 | 0.00 | 0.00 | 85 | 1007.1 |
| 20260506031606 | 26 | 183 | 3.2 | 12.9 | 0.00 | 0.00 | 0.00 | 83 | 1007.0 |
| 20260506030056 | 26 | 183 | 3.2 | 11.3 | 0.00 | 0.00 | 0.00 | 82 | 1006.9 |
| 20260506024559 | 26 | 184 | 1.6 | 9.7 | 0.00 | 0.00 | 0.00 | 81 | 1006.8 |
| 20260506023101 | 26 | 184 | 1.6 | 9.7 | 0.00 | 0.00 | 0.00 | 81 | 1006.6 |
| 20260506021558 | 26 | 184 | 1.6 | 11.3 | 0.00 | 0.00 | 0.00 | 80 | 1006.2 |
| 20260506020057 | 26 | 186 | 1.6 | 8.0 | 0.00 | 0.00 | 0.00 | 80 | 1006.0 |
| 20260506014558 | 26 | 185 | 3.2 | 11.3 | 0.00 | 0.00 | 0.00 | 79 | 1005.8 |
| 20260506013100 | 27 | 186 | 1.6 | 8.0 | 0.00 | 0.00 | 0.00 | 79 | 1005.7 |
| 20260506011604 | 27 | 186 | 3.2 | 9.7 | 0.00 | 0.00 | 0.00 | 77 | 1005.6 |
| 20260506004559 | 27 | 192 | 3.2 | 19.3 | 0.00 | 0.00 | 0.00 | 74 | 1005.5 |
| 20260506003059 | 28 | 191 | 4.8 | 16.1 | 0.00 | 0.00 | 0.00 | 74 | 1005.6 |
| 20260506001619 | 28 | 188 | 3.2 | 14.5 | 0.00 | 0.00 | 0.00 | 74 | 1005.7 |
| 20260505234601 | 28 | 200 | 1.6 | 12.9 | 0.00 | 0.00 | 0.00 | 72 | 1005.7 |
| 20260505233059 | 28 | 195 | 4.8 | 17.7 | 0.00 | 0.00 | 0.00 | 71 | 1005.5 |
| 20260505231559 | 28 | 196 | 6.4 | 20.9 | 0.00 | 0.00 | 0.00 | 71 | 1005.4 |
| 20260505230117 | 28 | 190 | 6.4 | 22.5 | 0.00 | 0.00 | 0.00 | 70 | 1005.2 |
| 20260505224600 | 28 | 178 | 8.0 | 17.7 | 0.00 | 0.00 | 0.00 | 70 | 1005.0 |
| 20260505223100 | 28 | 196 | 6.4 | 22.5 | 0.00 | 0.00 | 0.00 | 70 | 1005.2 |
| 20260505221559 | 28 | 183 | 8.0 | 20.9 | 0.00 | 0.00 | 0.00 | 70 | 1005.0 |
| 20260505220100 | 29 | 177 | 9.7 | 20.9 | 0.00 | 0.00 | 0.00 | 69 | 1005.1 |
| 20260505214608 | 29 | 174 | 9.7 | 27.4 | 0.00 | 0.00 | 0.00 | 70 | 1005.3 |
| 20260505213101 | 29 | 216 | 6.4 | 22.5 | 0.00 | 0.00 | 0.00 | 70 | 1005.5 |
| 20260505211616 | 29 | 199 | 8.0 | 24.1 | 0.00 | 0.00 | 0.00 | 70 | 1005.6 |
| 20260505210106 | 29 | 171 | 8.0 | 19.3 | 0.00 | 0.00 | 0.00 | 71 | 1005.8 |
| 20260505204559 | 28 | 165 | 11.3 | 25.7 | 0.00 | 0.00 | 0.00 | 71 | 1005.9 |
| 20260505203058 | 28 | 169 | 11.3 | 20.9 | 0.00 | 0.00 | 0.00 | 72 | 1006.0 |
| 20260505201605 | 29 | 175 | 4.8 | 16.1 | 0.00 | 0.00 | 0.00 | 70 | 1006.4 |
| 20260505200058 | 28 | 166 | 8.0 | 22.5 | 0.00 | 0.00 | 0.00 | 70 | 1006.5 |
| 20260505194558 | 29 | 204 | 6.4 | 20.9 | 0.00 | 0.00 | 0.00 | 69 | 1006.6 |
| 20260505193100 | 28 | 214 | 6.4 | 20.9 | 0.00 | 0.00 | 0.00 | 70 | 1006.9 |
| 20260505191604 | 28 | 229 | 4.8 | 16.1 | 0.00 | 0.00 | 0.00 | 70 | 1007.0 |
| 20260505190113 | 28 | 187 | 8.0 | 20.9 | 0.00 | 0.00 | 0.00 | 70 | 1007.2 |
| 20260505184609 | 28 | 229 | 6.4 | 20.9 | 0.00 | 0.00 | 0.00 | 71 | 1007.4 |
| 20260505183057 | 27 | 238 | 6.4 | 19.3 | 0.00 | 0.00 | 0.00 | 73 | 1007.5 |
| 20260505181603 | 26 | 211 | 6.4 | 24.1 | 0.00 | 0.00 | 0.00 | 75 | 1007.8 |